Location: Newark
(13.8117°N, 3.6025°W)
Time: 06:27:13
(UTC+00:00)

Vanguard 2 - Pass Details

Date: 27 August 2019
Orbit: 554 x 2937 km, 32.9° (Epoch: 21 September)

Event Time Altitude Azimuth Distance (km) Brightness Sun altitude
Rises 15:04:59 0° 313° (NW) 3,827 11.5 48.5°
Reaches altitude 10° 15:07:38 10° 324° (NW) 3,148 11.2 47.9°
Maximum altitude 15:14:51 32° 26° (NNE) 2,544 10.3 46.1°
Drops below altitude 10° 15:25:52 10° 84° (E) 4,866 11.3 43.5°
Sets 15:31:08 0° 93° (E) 6,232 11.7 42.2°
